Los Angeles Downtown, CA

5:12 AM PDT on June 24, 2018 (GMT -0700)
Los Angeles Downtown

Weather History for KCQT - October, 2017

Change the Weather History Date:

Thursday, October 12, 2017

  Actual Average Record
Temperature  
Mean Temperature 71 °F 69 °F  
Max Temperature 78 °F 79 °F 99 °F (1950)
Min Temperature 63 °F 60 °F 43 °F (1886)
Degree Days  
Heating Degree Days 0 0  
Month to date heating degree days 0 0  
Since 1 July heating degree days 0 2  
Cooling Degree Days 6 5  
Month to date cooling degree days 95 65  
Year to date cooling degree days 1610 1143  
Growing Degree Days 19 (Base 50)    
Moisture  
Dew Point 57 °F    
Average Humidity 67    
Maximum Humidity 87    
Minimum Humidity 46    
Precipitation  
Precipitation 0.00 in 0.02 in 0.43 in (1941)
Month to date precipitation 0.00 0.21  
Year to date precipitation 13.12 11.11  
Sea Level Pressure  
Sea Level Pressure 29.91 in    
Wind  
Wind Speed 1 mph (WSW)    
Max Wind Speed 10 mph    
Max Gust Speed 16 mph    
Visibility 8 miles    
Events      
T = Trace of Precipitation, MM = Missing Value Source: NWS Daily Summary

Daily Weather History Graph

Daily Weather History Graph

Search for Another Location

Airport or City:

Astronomy

Oct. 12, 2017 Rise Set
Actual Time 6:55 AM PDT 6:22 PM PDT
Civil Twilight 6:30 AM PDT 6:47 PM PDT
Nautical Twilight 6:01 AM PDT 7:16 PM PDT
Astronomical Twilight 5:32 AM PDT 7:45 PM PDT
Moon No Moon Rise 2:01 PM PDT (10/12)
Length of Visible Light 12h 16m
Length of Day
11h 26m
Waning Gibbous, 47% of the Moon is Illuminated
Oct 12
Waning Gibbous
Oct 19
New
Oct 27
First Quarter
Nov 3
Full
Nov 10
Last Quarter

Hourly Weather History & Observations

Time (PDT) Temp. Dew Point Humidity Pressure Visibility Wind Dir Wind Speed Gust Speed Precip Events Conditions
12:17 AM 63.0 °F 59.0 °F 87% 29.89 in 9.0 mi Calm Calm - N/A   Scattered Clouds
12:37 AM 64.0 °F 59.0 °F 84% 29.89 in 9.0 mi Calm Calm - N/A   Mostly Cloudy
12:47 AM 64.0 °F 59.0 °F 84% 29.89 in 9.0 mi Calm Calm - N/A   Mostly Cloudy
1:47 AM 64.0 °F 57.9 °F 80% 29.90 in 10.0 mi Calm Calm - N/A   Mostly Cloudy
2:07 AM 64.0 °F 57.9 °F 80% 29.90 in 10.0 mi Calm Calm - N/A   Mostly Cloudy
2:47 AM 64.0 °F 57.9 °F 80% 29.90 in 10.0 mi Calm Calm - N/A   Overcast
3:47 AM 64.0 °F 57.0 °F 78% 29.89 in 9.0 mi Calm Calm - N/A   Overcast
4:47 AM 64.9 °F 55.9 °F 73% 29.90 in 8.0 mi Calm Calm - N/A   Overcast
5:47 AM 64.0 °F 55.9 °F 75% 29.91 in 7.0 mi Calm Calm - N/A   Overcast
6:47 AM 64.0 °F 55.9 °F 75% 29.92 in 7.0 mi Calm Calm - N/A   Overcast
7:47 AM 64.0 °F 55.9 °F 75% 29.94 in 5.0 mi Calm Calm - N/A   Haze
7:58 AM 64.9 °F 55.9 °F 73% 29.94 in 5.0 mi Calm Calm - N/A   Haze
8:08 AM 66.0 °F 55.9 °F 70% 29.94 in 5.0 mi SE 3.5 mph - N/A   Haze
8:12 AM 64.9 °F 55.9 °F 73% 29.95 in 5.0 mi Calm Calm - N/A   Haze
8:47 AM 66.0 °F 55.9 °F 70% 29.95 in 5.0 mi Calm Calm - N/A   Haze
9:47 AM 69.1 °F 54.0 °F 58% 29.96 in 6.0 mi Calm Calm - N/A   Haze
10:47 AM 71.1 °F 53.1 °F 53% 29.95 in 6.0 mi Calm Calm - N/A   Haze
11:47 AM 73.9 °F 51.1 °F 45% 29.93 in 7.0 mi Calm Calm - N/A   Clear
12:47 PM 75.9 °F 55.9 °F 50% 29.92 in 9.0 mi West 5.8 mph - N/A   Clear
1:47 PM 73.0 °F 55.9 °F 55% 29.90 in 10.0 mi North - - N/A   Clear
2:47 PM 73.0 °F 57.0 °F 57% 29.89 in 10.0 mi West 5.8 mph - N/A   Clear
3:47 PM 72.0 °F 57.0 °F 59% 29.89 in 10.0 mi West 8.1 mph - N/A   Clear
4:47 PM 71.1 °F 57.0 °F 61% 29.88 in 10.0 mi Variable 4.6 mph - N/A   Clear
5:47 PM 69.1 °F 59.0 °F 70% 29.88 in 10.0 mi West 4.6 mph - N/A   Clear
6:47 PM 66.9 °F 60.1 °F 79% 29.89 in 10.0 mi WNW 3.5 mph - N/A   Partly Cloudy
7:47 PM 66.0 °F 59.0 °F 78% 29.91 in 10.0 mi Calm Calm - N/A   Clear
8:47 PM 64.9 °F 60.1 °F 84% 29.92 in 9.0 mi Calm Calm - N/A   Partly Cloudy
9:47 PM 64.9 °F 60.1 °F 84% 29.93 in 8.0 mi Calm Calm - N/A   Clear
10:47 PM 64.0 °F 60.1 °F 87% 29.93 in 8.0 mi Calm Calm - N/A   Clear
11:28 PM 64.0 °F 60.1 °F 87% 29.94 in 8.0 mi Calm Calm - N/A   Partly Cloudy
11:47 PM 64.0 °F 60.1 °F 87% 29.93 in 8.0 mi Calm Calm - N/A   Partly Cloudy